"2009-01-29 00:00:00",582116,13.52,314.3,3.148,0.802,5.833,99.93209,-0.873,0.386,28.55,0,109.5,13.56,-0.12,276.3
"2009-01-29 00:00:30",582117,13.38,314.9,3.823,0.703,6.038,99.93208,-0.873,0.38,28.11,0,109.5,13.55,-0.12,276.9
"2009-01-29 00:01:00",582118,13.74,314.1,4.177,0.726,5.786,99.93209,-0.873,0.377,27.9,0,109.5,13.56,-0.12,276.1
"2009-01-29 00:01:30",582119,13.31,315.1,4.277,0.689,5.929,99.93209,-0.873,0.386,27.68,0,109.5,13.56,-0.12,277.1
"2009-01-29 00:02:00",582120,13.11,315.9,4.423,0.628,6.039,99.93209,-0.873,0.366,26.78,0,109.5,13.56,-0.12,277.9
"2009-01-29 00:02:30",582121,12.5,317.3,3.773,0.845,6.011,99.93209,-0.873,0.356,26.71,0,109.5,13.56,-0.12,279.3
"2009-01-29 00:03:00",582122,13.66,311.6,4.311,0.707,5.919,99.93209,-0.873,0.368,27.09,0,109.5,13.56,-0.12,273.6
"2009-01-29 00:03:30",582123,13.69,310.3,4.558,0.631,5.864,99.93209,-0.873,0.379,27.76,0,109.5,13.56,-0.12,272.3
"2009-01-29 00:04:00",582124,12.84,314.9,4.097,0.601,5.698,99.93237,-0.872,0.373,28.06,0,109.5,13.56,-0.12,276.9
"2009-01-29 00:04:30",582125,12.6,313.8,3.839,0.696,5.955,99.93294,-0.871,0.359,27.46,0,109.5,13.56,-0.12,275.8
"2009-01-29 00:05:00",582126,11.89,315,5.528,0.898,5.73,99.93124,-0.875,0.355,27.67,0,109.5,13.56,-0.13,277.0
"2009-01-29 00:05:30",582127,11.36,313.8,5.731,0.926,5.561,99.92246,-0.897,0.373,27.83,0,109.5,13.56,-0.15,275.8
"2009-01-29 00:06:00",582128,11.66,317.7,5.182,0.633,5.673,99.92557,-0.889,0.338,27.58,0,109.5,13.57,-0.14,279.7
"2009-01-29 00:06:30",582129,12.04,316.1,5.743,0.73,5.729,99.93037,-0.877,0.322,27.48,0,109.5,13.57,-0.13,278.1
"2009-01-29 00:07:00",582130,11.25,314.1,6.824,0.718,5.643,99.93009,-0.878,0.328,27.25,0,109.5,13.57,-0.13,276.1
"2009-01-29 00:07:30",582131,10.74,318.7,5.156,0.64,5.473,99.93291,-0.871,0.337,27.46,0,109.5,13.57,-0.12,280.7
"2009-01-29 00:08:00",582132,10.59,319.4,4.42,0.54,5.26,99.93065,-0.876,0.327,28.02,0,109.5,13.57,-0.13,281.4
"2009-01-29 00:08:30",582133,11,316.4,4.253,0.53,5.32,99.92188,-0.899,0.327,28.37,0,109.5,13.57,-0.15,278.4
"2009-01-29 00:09:00",582134,11.43,315.9,4.726,0.562,5.082,99.92131,-0.9,0.303,28.71,0,109.5,13.57,-0.15,277.9
"2009-01-29 00:09:30",582135,12.14,315.4,4.117,0.487,5.166,99.91763,-0.91,0.294,29.12,0,109.5,13.57,-0.16,277.4
"2009-01-29 00:10:00",582136,11.52,315.6,5.233,0.697,5.32,99.90235,-0.949,0.302,29.12,0,109.5,13.57,-0.20,277.6
"2009-01-29 00:10:30",582137,11.45,318,3.463,0.63,5.338,99.89527,-0.967,0.27,29.16,0,109.5,13.57,-0.22,280.0
"2009-01-29 00:11:00",582138,12.74,317.3,5.902,0.884,5.325,99.89046,-0.979,0.261,29.13,0,109.5,13.57,-0.23,279.3
"2009-01-29 00:11:30",582139,13.21,314.2,4.846,0.651,5.284,99.89131,-0.977,0.26,28.98,0,109.5,13.57,-0.23,276.2
"2009-01-29 00:12:00",582140,13.89,311.8,3.954,0.606,5.476,99.88734,-0.987,0.229,29.63,0,109.5,13.57,-0.24,273.8
"2009-01-29 00:12:30",582141,13.09,316.4,5.095,0.777,5.589,99.87432,-1.02,0.236,29.81,0,109.5,13.57,-0.27,278.4
"2009-01-29 00:13:00",582142,13.48,316.9,4.13,0.542,5.564,99.86215,-1.051,0.207,30.15,0,109.5,13.57,-0.30,278.9
"2009-01-29 00:13:30",582143,13.17,316.9,4.514,0.627,5.729,99.86271,-1.05,0.207,29.83,0,109.5,13.57,-0.30,278.9
"2009-01-29 00:14:00",582144,13.09,318,4.363,0.679,5.767,99.863,-1.049,0.185,29.77,0,109.5,13.57,-0.30,280.0
"2009-01-29 00:14:30",582145,12.5,317.2,5.619,0.82,5.992,99.86413,-1.046,0.167,29.4,0,109.5,13.57,-0.30,279.2
"2009-01-29 00:15:00",582146,11.26,316.7,5.419,0.609,5.948,99.86385,-1.047,0.144,28.22,0,109.5,13.57,-0.30,278.7
"2009-01-29 00:15:30",582147,11.3,318,5.073,0.525,5.804,99.86413,-1.046,0.172,27.96,0,109.5,13.57,-0.30,280.0
"2009-01-29 00:16:00",582148,11.3,318.9,4.357,0.774,5.53,99.86497,-1.044,0.175,28.16,0,109.5,13.57,-0.30,280.9
"2009-01-29 00:16:30",582149,11.68,317.7,3.615,0.777,5.63,99.86639,-1.04,0.186,28.68,0,109.5,13.57,-0.29,279.7
"2009-01-29 00:17:00",582150,11.48,318.4,4.067,0.531,5.451,99.86497,-1.044,0.177,29.1,0,109.5,13.57,-0.30,280.4
"2009-01-29 00:17:30",582151,11.63,325.2,6.243,0.444,5.791,99.86497,-1.044,0.179,28.64,0,109.5,13.58,-0.30,287.2
"2009-01-29 00:18:00",582152,11.62,331.2,3.702,1.055,5.88,99.87686,-1.013,0.186,27.09,0,109.5,13.58,-0.27,293.2
"2009-01-29 00:18:30",582153,10.51,330.6,5.815,0.869,5.694,99.89356,-0.971,0.191,26.87,0,109.5,13.58,-0.22,292.6
"2009-01-29 00:19:00",582154,10.34,322.4,3.706,0.597,5.583,99.89809,-0.959,0.208,27.13,0,109.5,13.58,-0.21,284.4
"2009-01-29 00:19:30",582155,10.42,317.7,5.216,0.7,5.495,99.89809,-0.959,0.218,27.59,0,109.5,13.58,-0.21,279.7
"2009-01-29 00:20:00",582156,11.08,316.2,6.419,0.767,5.259,99.89809,-0.959,0.226,28.23,0,109.5,13.58,-0.21,278.2
"2009-01-29 00:20:30",582157,11.3,314.8,4.57,0.613,5.447,99.89809,-0.959,0.227,28.07,0,109.5,13.58,-0.21,276.8
"2009-01-29 00:21:00",582158,11.69,314.7,4.079,0.678,5.133,99.89809,-0.959,0.228,28.27,0,109.5,13.58,-0.21,276.7
"2009-01-29 00:21:30",582159,11.68,317.7,4.083,0.677,5.273,99.89809,-0.959,0.236,28.34,0,109.5,13.58,-0.21,279.7
"2009-01-29 00:22:00",582160,11.65,314.7,4.018,0.641,5.388,99.89809,-0.959,0.227,28.04,0,109.5,13.59,-0.21,276.7
"2009-01-29 00:22:30",582161,11.18,317.3,3.918,0.656,5.467,99.89809,-0.959,0.243,28.06,0,109.4,13.59,-0.21,279.3
"2009-01-29 00:23:00",582162,11.2,314.1,3.871,0.631,5.301,99.89809,-0.959,0.24,28.48,0,109.4,13.59,-0.21,276.1
"2009-01-29 00:23:30",582163,11.31,316.9,3.916,0.755,5.406,99.89809,-0.959,0.244,28.09,0,109.4,13.59,-0.21,278.9
"2009-01-29 00:24:00",582164,11.23,317.9,3.957,0.733,5.45,99.89809,-0.959,0.237,27.8,0,109.4,13.59,-0.21,279.9
"2009-01-29 00:24:30",582165,12.51,318,3.336,0.903,5.414,99.89809,-0.959,0.234,27.68,0,109.4,13.59,-0.21,280.0
"2009-01-29 00:25:00",582166,12.64,318.6,4.276,0.823,5.388,99.89809,-0.959,0.232,28,0,109.5,13.59,-0.21,280.6
"2009-01-29 00:25:30",582167,12.48,321.6,5.723,0.682,5.536,99.89837,-0.959,0.256,28.13,0,109.5,13.59,-0.21,283.6
"2009-01-29 00:26:00",582168,13.44,323.1,4.778,1.004,5.723,99.89668,-0.963,0.225,28.35,0,109.5,13.59,-0.21,285.1
"2009-01-29 00:26:30",582169,13.42,318,5.484,0.915,5.997,99.89611,-0.964,0.236,28.09,0,109.5,13.59,-0.22,280.0
"2009-01-29 00:27:00",582170,12.67,316.1,4.628,0.801,5.657,99.8879,-0.985,0.238,28.14,0,109.5,13.59,-0.24,278.1
"2009-01-29 00:27:30",582171,12.27,309.2,4.915,1.372,5.431,99.87601,-1.016,0.251,28.89,0,109.5,13.58,-0.27,271.2
"2009-01-29 00:28:00",582172,12.87,309.5,4.17,0.722,5.786,99.86978,-1.032,0.207,28.85,0,109.5,13.59,-0.28,271.5
"2009-01-29 00:28:30",582173,12.92,312.5,4.962,0.738,5.77,99.87289,-1.024,0.208,28.92,0,109.5,13.58,-0.28,274.5
"2009-01-29 00:29:00",582174,11.89,313.4,5.126,0.793,5.694,99.87318,-1.023,0.184,28.5,0,109.5,13.58,-0.27,275.4
"2009-01-29 00:29:30",582175,13.95,320.1,3.726,0.787,5.531,99.876,-1.016,0.206,28.45,0,109.4,13.59,-0.27,282.1
"2009-01-29 00:30:00",582176,13.36,320.6,4.952,0.934,5.611,99.87939,-1.007,0.196,28.69,0,109.4,13.58,-0.26,282.6
"2009-01-29 00:30:30",582177,14.73,315.6,4.479,0.92,5.851,99.87769,-1.011,0.188,28.88,0,109.4,13.59,-0.26,277.6
"2009-01-29 00:31:00",582178,14.64,319.1,5.008,0.987,6.109,99.87487,-1.019,0.188,28.52,0,109.5,13.58,-0.27,281.1
"2009-01-29 00:31:30",582179,13.46,316.5,4.892,0.817,6.109,99.87968,-1.006,0.196,27.95,0,109.4,13.59,-0.26,278.5
"2009-01-29 00:32:00",582180,13.79,315.5,5.174,0.62,6.047,99.88223,-1,0.189,28.62,0,109.4,13.59,-0.25,277.5
"2009-01-29 00:32:30",582181,13.14,319.9,4.038,0.706,6.278,99.88335,-0.997,0.199,28.32,0,109.4,13.59,-0.25,281.9
"2009-01-29 00:33:00",582182,13.38,313.8,4.985,0.575,5.969,99.88731,-0.987,0.207,28.05,0,109.4,13.59,-0.24,275.8
"2009-01-29 00:33:30",582183,12.49,318.6,4.688,0.719,6.143,99.88505,-0.993,0.226,28.24,0,109.4,13.59,-0.24,280.6
"2009-01-29 00:34:00",582184,12.88,316.7,5.816,1.024,5.922,99.88703,-0.988,0.205,27.6,0,109.4,13.59,-0.24,278.7
"2009-01-29 00:34:30",582185,12.33,318.8,4.68,0.937,5.946,99.88844,-0.984,0.218,28.28,0,109.4,13.59,-0.24,280.8
"2009-01-29 00:35:00",582186,12.21,313.3,4.823,0.71,5.765,99.88844,-0.984,0.206,28.34,0,109.5,13.59,-0.24,275.3
"2009-01-29 00:35:30",582187,10.82,322.6,6.051,0.931,5.983,99.88902,-0.983,0.209,27.91,0,109.4,13.59,-0.23,284.6
"2009-01-29 00:36:00",582188,10.55,317.8,8.4,1.062,6.029,99.89439,-0.969,0.216,26.32,0,109.4,13.6,-0.22,279.8
"2009-01-29 00:36:30",582189,10.3,314.6,3.212,0.792,5.714,99.91817,-0.908,0.247,26.1,0,109.4,13.6,-0.16,276.6
"2009-01-29 00:37:00",582190,11.67,314.2,5.628,0.994,5.352,99.9244,-0.892,0.244,26.65,0,109.4,13.6,-0.14,276.2
"2009-01-29 00:37:30",582191,13.57,310.2,4.031,0.91,5.212,99.92496,-0.891,0.278,28.24,0,109.4,13.6,-0.14,272.2
"2009-01-29 00:38:00",582192,13.36,311.1,4.291,1.064,5.249,99.91448,-0.918,0.262,28.93,0,109.4,13.6,-0.17,273.1
"2009-01-29 00:38:30",582193,13.26,314.9,3.695,0.79,5.405,99.89664,-0.963,0.256,29.01,0,109.4,13.6,-0.21,276.9
"2009-01-29 00:39:00",582194,13.31,320.8,6.214,0.824,5.902,99.89268,-0.973,0.255,28.33,0,109.4,13.6,-0.22,282.8
"2009-01-29 00:39:30",582195,12.59,318,4.052,0.827,5.753,99.89381,-0.97,0.245,27.85,0,109.4,13.6,-0.22,280.0
"2009-01-29 00:40:00",582196,12.72,315.8,5.482,0.891,5.552,99.8941,-0.97,0.236,28.77,0,109.4,13.6,-0.22,277.8
"2009-01-29 00:40:30",582197,12.22,322.9,6.478,0.825,5.936,99.89664,-0.963,0.223,28.86,0,109.4,13.6,-0.21,284.9
"2009-01-29 00:41:00",582198,11.93,330,4.69,0.696,6.042,99.89778,-0.96,0.224,27.91,0,109.5,13.6,-0.21,292.0
"2009-01-29 00:41:30",582199,11.46,313.7,5.793,0.947,5.801,99.89778,-0.96,0.252,27.72,0,109.4,13.6,-0.21,275.7
"2009-01-29 00:42:00",582200,12.21,314,4.652,0.561,5.614,99.89778,-0.96,0.245,28.46,0,109.4,13.6,-0.21,276.0
"2009-01-29 00:42:30",582201,12.39,315.2,4.501,0.701,5.652,99.89749,-0.961,0.228,28.8,0,109.4,13.6,-0.21,277.2
"2009-01-29 00:43:00",582202,12.22,313.4,5.628,0.58,5.44,99.89098,-0.977,0.22,28.86,0,109.4,13.6,-0.23,275.4
"2009-01-29 00:43:30",582203,12.08,314.5,4.841,0.627,5.541,99.88306,-0.998,0.226,28.63,0,109.4,13.6,-0.25,276.5
"2009-01-29 00:44:00",582204,12.11,312.8,4.653,0.577,5.586,99.87937,-1.007,0.207,28.33,0,109.4,13.6,-0.26,274.8
"2009-01-29 00:44:30",582205,12.46,315.5,4.66,0.615,5.571,99.87908,-1.008,0.205,28.66,0,109.4,13.6,-0.26,277.5
"2009-01-29 00:45:00",582206,12.5,311.6,4.994,0.58,5.361,99.87682,-1.014,0.199,28.92,0,109.4,13.59,-0.27,273.6
"2009-01-29 00:45:30",582207,11.81,311.2,4.47,0.699,5.351,99.86492,-1.044,0.206,29.8,0,109.4,13.59,-0.30,273.2
"2009-01-29 00:46:00",582208,12.37,312,3.91,0.598,5.261,99.86408,-1.046,0.184,29.86,0,109.4,13.59,-0.30,274.0
"2009-01-29 00:46:30",582209,12.73,310.5,2.986,0.71,5.359,99.85757,-1.063,0.178,30.14,0,109.4,13.59,-0.31,272.5
"2009-01-29 00:47:00",582210,12.72,305.5,3.505,0.54,5.236,99.83803,-1.112,0.147,30.39,0,109.4,13.59,-0.36,267.5
"2009-01-29 00:47:30",582211,13.02,304.8,3.842,0.805,5.328,99.83039,-1.132,0.134,30.28,0,109.4,13.59,-0.38,266.8
"2009-01-29 00:48:00",582212,12.62,303.4,3.894,1.001,5.417,99.8301,-1.133,0.105,30.12,0,109.4,13.6,-0.38,265.4
"2009-01-29 00:48:30",582213,11.54,304.1,3.663,0.817,5.423,99.8301,-1.133,0.091,29.8,0,109.4,13.6,-0.38,266.1
"2009-01-29 00:49:00",582214,11.15,310,3.854,0.888,4.971,99.8301,-1.133,0.081,30.14,0,109.4,13.6,-0.38,272.0
"2009-01-29 00:49:30",582215,12.11,313.9,4.356,0.651,5.077,99.82784,-1.138,0.089,30.54,0,109.4,13.6,-0.39,275.9
"2009-01-29 00:50:00",582216,11.65,314.5,4.395,0.536,5.083,99.80943,-1.185,0.073,30.63,0,109.4,13.6,-0.44,276.5
"2009-01-29 00:50:30",582217,11.52,315.5,3.993,0.573,5.46,99.79895,-1.212,0.061,30.41,0,109.4,13.6,-0.46,277.5
"2009-01-29 00:51:00",582218,11.86,314.7,4.229,0.553,5.252,99.79613,-1.219,0.051,30.68,0,109.4,13.6,-0.47,276.7
"2009-01-29 00:51:30",582219,12.3,319.5,4.836,0.632,5.175,99.79613,-1.219,0.049,30.8,0,109.4,13.6,-0.47,281.5
"2009-01-29 00:52:00",582220,12.82,319.2,3.911,0.705,5.155,99.79613,-1.219,0.014,30.95,0,109.4,13.6,-0.47,281.2
"2009-01-29 00:52:30",582221,12.76,317.4,2.827,0.831,5.267,99.79301,-1.227,0.008,31.17,0,109.4,13.6,-0.48,279.4
"2009-01-29 00:53:00",582222,12.94,314.1,3.754,0.558,5.317,99.77546,-1.272,-0.005,31.15,0,109.4,13.6,-0.52,276.1
"2009-01-29 00:53:30",582223,12.91,312.7,3.933,0.674,5.373,99.76214,-1.306,-0.012,31.47,0,109.4,13.61,-0.56,274.7
"2009-01-29 00:54:00",582224,13.61,314.4,2.154,0.834,5.06,99.76214,-1.306,-0.048,31.65,0,109.4,13.61,-0.56,276.4
"2009-01-29 00:54:30",582225,13.55,315.4,3.853,0.639,5.614,99.76214,-1.306,-0.055,31.21,0,109.4,13.61,-0.56,277.4
"2009-01-29 00:55:00",582226,13.28,314.4,3.397,0.69,5.471,99.76214,-1.306,-0.057,30.89,0,109.4,13.61,-0.56,276.4
"2009-01-29 00:55:30",582227,12.79,314.6,4.352,0.552,5.549,99.76214,-1.306,-0.054,31.2,0,109.4,13.61,-0.56,276.6
"2009-01-29 00:56:00",582228,12.9,312.1,4.669,0.632,5.466,99.76186,-1.307,-0.065,31.5,0,109.4,13.61,-0.56,274.1
"2009-01-29 00:56:30",582229,13.11,312.8,3.46,0.575,5.558,99.75818,-1.316,-0.082,31.46,0,109.4,13.61,-0.57,274.8
"2009-01-29 00:57:00",582230,13.17,311.4,4.206,0.568,5.476,99.75025,-1.336,-0.095,31.52,0,109.4,13.61,-0.59,273.4
"2009-01-29 00:57:30",582231,13.19,312.7,3.781,0.829,5.372,99.74119,-1.359,-0.083,31.68,0,109.4,13.61,-0.61,274.7
"2009-01-29 00:58:00",582232,12.92,313.1,3.072,0.821,5.198,99.73184,-1.383,-0.119,31.78,0,109.4,13.61,-0.64,275.1
"2009-01-29 00:58:30",582233,12.9,317.7,4.033,0.807,5.442,99.72816,-1.393,-0.12,31.86,0,109.4,13.61,-0.65,279.7
"2009-01-29 00:59:00",582234,12.36,318,4.054,0.476,5.536,99.72845,-1.392,-0.114,31.78,0,109.4,13.61,-0.64,280.0
"2009-01-29 00:59:30",582235,12.49,317.7,4.14,0.657,5.533,99.72816,-1.393,-0.119,31.71,0,109.4,13.6,-0.65,279.7
"2009-01-29 01:00:00",582236,12.64,315.8,4.97,0.603,5.548,99.72874,-1.391,-0.128,31.62,0,109.4,13.6,-0.64,277.8
"2009-01-29 01:00:30",582237,12.48,316.3,3.643,0.633,5.41,99.72874,-1.391,-0.137,31.6,0,109.4,13.6,-0.64,278.3
"2009-01-29 01:01:00",582238,12.52,314.3,3.572,0.662,5.333,99.72929,-1.39,-0.156,31.55,0,109.4,13.6,-0.64,276.3
"2009-01-29 01:01:30",582239,12.26,314.7,3.824,0.685,5.296,99.72874,-1.391,-0.134,31.64,0,109.4,13.6,-0.64,276.7
"2009-01-29 01:02:00",582240,11.76,317.7,3.844,0.787,5.465,99.72901,-1.39,-0.156,31.65,0,109.4,13.6,-0.64,279.7
"2009-01-29 01:02:30",582241,11.66,313.2,4.305,0.506,5.279,99.72788,-1.393,-0.151,31.63,0,109.4,13.6,-0.65,275.2
"2009-01-29 01:03:00",582242,11.87,315.7,4.345,0.505,5.242,99.72193,-1.408,-0.163,31.87,0,109.4,13.6,-0.66,277.7
"2009-01-29 01:03:30",582243,11.77,315.3,4.332,0.546,5.263,99.71485,-1.426,-0.163,31.82,0,109.4,13.6,-0.68,277.3
"2009-01-29 01:04:00",582244,11.44,317.8,3.573,0.53,5.183,99.71258,-1.432,-0.179,31.72,0,109.4,13.6,-0.69,279.8
"2009-01-29 01:04:30",582245,11.14,319.9,3.371,0.709,5.133,99.70776,-1.445,-0.184,32.02,0,109.4,13.61,-0.70,281.9
"2009-01-29 01:05:00",582246,10.68,323.4,3.632,0.659,4.884,99.70181,-1.46,-0.193,32.25,0,109.4,13.61,-0.71,285.4
"2009-01-29 01:05:30",582247,10.79,325.3,3.354,0.859,4.853,99.7035,-1.455,-0.194,32.45,0,109.4,13.61,-0.71,287.3
"2009-01-29 01:06:00",582248,10.64,323.5,4.718,0.777,4.873,99.70237,-1.458,-0.214,32.6,0,109.4,13.62,-0.71,285.5
"2009-01-29 01:06:30",582249,10.51,320.6,2.467,0.906,4.816,99.68906,-1.492,-0.254,32.76,0,109.4,13.62,-0.75,282.6
"2009-01-29 01:07:00",582250,9.72,321.3,3.378,0.759,4.533,99.67432,-1.53,-0.281,32.94,0,109.4,13.62,-0.78,283.3
"2009-01-29 01:07:30",582251,9.83,317.2,4.948,0.848,4.63,99.6729,-1.533,-0.282,32.92,0,109.4,13.62,-0.79,279.2
"2009-01-29 01:08:00",582252,8.87,320.7,5.295,0.808,4.374,99.65421,-1.581,-0.322,33.16,0,109.4,13.62,-0.83,282.7
"2009-01-29 01:08:30",582253,8.58,322.3,4.214,0.676,4.255,99.64202,-1.612,-0.363,33.29,0,109.4,13.62,-0.87,284.3
"2009-01-29 01:09:00",582254,7.653,323.7,5.316,1.08,3.839,99.62334,-1.66,-0.417,33.48,0,109.4,13.62,-0.91,285.7
"2009-01-29 01:09:30",582255,6.928,315.3,7.217,0.784,3.701,99.60239,-1.713,-0.442,33.7,0,109.4,13.62,-0.97,277.3
"2009-01-29 01:10:00",582256,5.502,327.3,14.97,0.976,3.152,99.57972,-1.771,-0.511,33.86,0,109.4,13.62,-1.03,289.3
"2009-01-29 01:10:30",582257,6.161,321.5,5.709,0.81,3.151,99.5698,-1.796,-0.548,33.86,0,109.4,13.62,-1.05,283.5
"2009-01-29 01:11:00",582258,6.362,333.3,12.48,1.161,2.708,99.55649,-1.83,-0.564,34.01,0,109.4,13.62,-1.08,295.3
"2009-01-29 01:11:30",582259,4.199,326.7,11.63,1.298,-0.069,99.54177,-1.868,-0.817,34.16,0,109.4,13.62,-1.12,288.7
"2009-01-29 01:12:00",582260,4.537,303.6,20.14,1.116,0.334,99.52563,-1.909,-0.799,34.22,0,109.4,13.62,-1.16,265.6
"2009-01-29 01:12:30",582261,3.651,329.5,9.12,1.195,0.407,99.52165,-1.919,-0.855,34.17,0,109.4,13.62,-1.17,291.5
"2009-01-29 01:13:00",582262,5.214,321.7,8.37,0.686,3.51,99.51317,-1.94,-0.673,34.56,0,109.4,13.63,-1.20,283.7
"2009-01-29 01:13:30",582263,6.074,320.3,14.25,1.104,3.502,99.5075,-1.955,-0.677,34.72,0,109.4,13.63,-1.21,282.3
"2009-01-29 01:14:00",582264,5.145,357.8,15.93,1.232,3.579,99.50806,-1.953,-0.756,34.81,0,109.4,13.63,-1.21,319.8
"2009-01-29 01:14:30",582265,3.078,5.909,13.02,1.82,0.765,99.50296,-1.966,-0.955,34.75,0,109.4,13.63,-1.22,327.9
"2009-01-29 01:15:00",582266,3.19,20.17,12.98,1.189,0.264,99.49559,-1.985,-0.914,34.78,0,109.4,13.63,-1.24,342.2
"2009-01-29 01:15:30",582267,2.847,335.9,9.07,0.538,-1.498,99.49048,-1.998,-1.026,34.84,0,109.4,13.63,-1.25,297.9
"2009-01-29 01:16:00",582268,5.631,329.9,5.001,2.229,1.109,99.47887,-2.028,-0.897,35.01,0,109.4,13.63,-1.28,291.9
"2009-01-29 01:16:30",582269,7.354,338.2,7.285,1.067,3.864,99.48905,-2.002,-0.786,34.67,0,109.4,13.63,-1.26,300.2
"2009-01-29 01:17:00",582270,4.916,5.591,18.94,0.766,4.01,99.48849,-2.003,-0.799,34.78,0,109.4,13.63,-1.26,327.6
"2009-01-29 01:17:30",582271,4.32,15.94,24.19,0.995,3.444,99.48707,-2.007,-0.806,34.81,0,109.4,13.63,-1.26,337.9
"2009-01-29 01:18:00",582272,2.793,68.11,26.03,1.664,0.344,99.49471,-1.987,-1.01,34.55,0,109.4,13.63,-1.24,30.1
"2009-01-29 01:18:30",582273,3.878,53.38,23.17,1.331,0.082,99.49812,-1.979,-0.956,34.6,0,109.4,13.62,-1.23,15.4
"2009-01-29 01:19:00",582274,3.123,52.98,14.78,0.935,-0.012,99.50548,-1.96,-0.986,34.57,0,109.4,13.63,-1.21,15.0
"2009-01-29 01:19:30",582275,5.372,49.17,13.45,1.091,3.4,99.51028,-1.948,-0.769,34.78,0,109.4,13.63,-1.20,11.2
"2009-01-29 01:20:00",582276,4.486,37.47,16.44,1.059,3.705,99.51539,-1.935,-0.776,34.77,0,109.4,13.63,-1.19,359.5
"2009-01-29 01:20:30",582277,4.432,86.6,18.74,0.989,3.109,99.51681,-1.931,-0.812,34.63,0,109.4,13.63,-1.19,48.6
"2009-01-29 01:21:00",582278,3.306,100.5,24.83,1.175,0.586,99.51652,-1.932,-1.011,34.33,0,109.4,13.63,-1.19,62.5
"2009-01-29 01:21:30",582279,3.252,43.48,6.142,1.293,0.568,99.51708,-1.93,-0.923,34.39,0,109.4,13.63,-1.19,5.5
"2009-01-29 01:22:00",582280,2.983,53.18,6.628,1.237,-0.38,99.51708,-1.93,-0.939,34.26,0,109.4,13.64,-1.19,15.2
"2009-01-29 01:22:30",582281,4.834,72.45,7.044,0.985,3.528,99.51793,-1.928,-0.757,34.3,0,109.4,13.64,-1.18,34.4
"2009-01-29 01:23:00",582282,6.215,68.45,5.954,0.732,3.648,99.51878,-1.926,-0.749,33.97,0,109.4,13.64,-1.18,30.4
"2009-01-29 01:23:30",582283,6.381,62.86,7.07,0.487,3.883,99.52414,-1.912,-0.731,33.94,0,109.3,13.64,-1.17,24.9
"2009-01-29 01:24:00",582284,5.739,61.41,4.922,1.047,2.716,99.5301,-1.897,-0.788,33.79,0,109.4,13.64,-1.15,23.4
"2009-01-29 01:24:30",582285,4.664,61.07,9.43,1.173,0.835,99.55132,-1.843,-0.943,33.51,0,109.3,13.64,-1.10,23.1
"2009-01-29 01:25:00",582286,4.35,61.53,7.765,1.327,0.205,99.55784,-1.827,-0.918,33.64,0,109.3,13.64,-1.08,23.5
"2009-01-29 01:25:30",582287,5.596,70.12,12.41,1.386,2.009,99.55755,-1.827,-0.749,34.31,0,109.4,13.64,-1.08,32.1
"2009-01-29 01:26:00",582288,6.864,69.8,6.122,0.647,4.074,99.55699,-1.829,-0.707,34.28,0,109.4,13.64,-1.08,31.8
"2009-01-29 01:26:30",582289,7.444,70.31,4.523,0.754,4.034,99.55727,-1.828,-0.688,34.16,0,109.4,13.64,-1.08,32.3
"2009-01-29 01:27:00",582290,7.173,60.67,6.082,0.822,4.047,99.55811,-1.826,-0.688,34.19,0,109.3,13.64,-1.08,22.7
"2009-01-29 01:27:30",582291,5.777,48.33,12.89,0.984,3.771,99.55811,-1.826,-0.672,34.18,0,109.3,13.64,-1.08,10.3
"2009-01-29 01:28:00",582292,4.02,38.27,4.961,1.199,1.082,99.55811,-1.826,-0.739,34.09,0,109.3,13.64,-1.08,0.3
"2009-01-29 01:28:30",582293,3.81,38.04,5.026,1.331,-0.029,99.55811,-1.826,-0.933,33.81,0,109.3,13.64,-1.08,0.0
"2009-01-29 01:29:00",582294,2.541,51.9,9.71,0.927,-0.231,99.55811,-1.826,-0.785,33.97,0,109.3,13.64,-1.08,13.9
"2009-01-29 01:29:30",582295,3.942,29.98,13.1,0.971,2.964,99.55811,-1.826,-0.721,34.02,0,109.3,13.64,-1.08,352.0
"2009-01-29 01:30:00",582296,5.897,26.52,8.99,0.943,3.266,99.55811,-1.826,-0.703,33.96,0,109.3,13.64,-1.08,348.5
"2009-01-29 01:30:30",582297,5.137,32,9.89,0.855,3.744,99.55811,-1.826,-0.677,34.05,0,109.3,13.64,-1.08,354.0
"2009-01-29 01:31:00",582298,5.655,36.71,12.25,0.614,3.41,99.55811,-1.826,-0.66,34.04,0,109.3,13.64,-1.08,358.7
"2009-01-29 01:31:30",582299,2.815,20.1,9.15,1.167,0.401,99.55811,-1.826,-0.814,33.92,0,109.3,13.64,-1.08,342.1
"2009-01-29 01:32:00",582300,3.328,37.43,12.09,0.788,-0.113,99.55811,-1.826,-0.942,33.76,0,109.3,13.64,-1.08,359.4
"2009-01-29 01:32:30",582301,3.152,62.11,13.34,0.799,1.156,99.5601,-1.821,-0.728,33.88,0,109.3,13.64,-1.08,24.1
"2009-01-29 01:33:00",582302,2.592,74,22.19,1.496,2.305,99.56917,-1.798,-0.743,33.82,0,109.3,13.64,-1.05,36.0
"2009-01-29 01:33:30",582303,4.425,86.1,5.444,1.001,1.811,99.56209,-1.816,-0.772,33.82,0,109.3,13.64,-1.07,48.1
"2009-01-29 01:34:00",582304,4.209,93.9,6.884,0.954,3.232,99.55811,-1.826,-0.712,33.92,0,109.3,13.64,-1.08,55.9
"2009-01-29 01:34:30",582305,2.989,93.5,11.22,1.203,2.425,99.55811,-1.826,-0.734,33.92,0,109.3,13.64,-1.08,55.5
"2009-01-29 01:35:00",582306,2.004,75.7,7.355,0.96,-0.51,99.55811,-1.826,-0.911,33.75,0,109.3,13.64,-1.08,37.7
"2009-01-29 01:35:30",582307,2.846,81.3,8.86,1.123,0.527,99.55925,-1.823,-0.809,33.68,0,109.3,13.64,-1.08,43.3
"2009-01-29 01:36:00",582308,2.621,56.77,18.47,1.114,0.019,99.57285,-1.788,-0.842,33.48,0,109.3,13.64,-1.04,18.8
"2009-01-29 01:36:30",582309,2.323,57.1,17.55,1.113,1.337,99.58758,-1.751,-0.734,33.51,0,109.3,13.64,-1.00,19.1
"2009-01-29 01:37:00",582310,2.684,112.1,18.08,1.046,2.022,99.5873,-1.752,-0.693,33.68,0,109.3,13.65,-1.01,74.1
"2009-01-29 01:37:30",582311,3.227,107.2,6.791,0.892,-0.016,99.57143,-1.792,-0.828,33.69,0,109.3,13.65,-1.05,69.2
"2009-01-29 01:38:00",582312,3.64,110.9,6.926,1.171,-0.595,99.55869,-1.824,-0.868,33.84,0,109.3,13.65,-1.08,72.9
"2009-01-29 01:38:30",582313,3.546,115.2,7.983,1.331,0.255,99.55528,-1.833,-0.736,34.16,0,109.3,13.65,-1.09,77.2
"2009-01-29 01:39:00",582314,3.968,111.6,5.828,0.988,3.221,99.52809,-1.902,-0.663,34.47,0,109.3,13.65,-1.16,73.6
"2009-01-29 01:39:30",582315,4.163,107.4,6.783,1.045,2.861,99.52413,-1.913,-0.769,34.6,0,109.3,13.65,-1.17,69.4
"2009-01-29 01:40:00",582316,3.913,109,8.78,1.094,2.591,99.51195,-1.944,-0.785,34.72,0,109.3,13.65,-1.20,71.0
"2009-01-29 01:40:30",582317,3.804,109.5,6.703,1.183,0.781,99.49241,-1.993,-0.882,34.92,0,109.3,13.65,-1.25,71.5
"2009-01-29 01:41:00",582318,2.939,102.7,6.761,0.875,-0.01,99.49014,-1.999,-0.917,35.14,0,109.3,13.66,-1.25,64.7
"2009-01-29 01:41:30",582319,3.303,96.3,8.34,1.172,1.308,99.47937,-2.027,-0.925,35,0,109.3,13.65,-1.28,58.3
"2009-01-29 01:42:00",582320,3.307,104,5.746,1.418,1.706,99.47173,-2.046,-0.898,34.86,0,109.3,13.66,-1.30,66.0
"2009-01-29 01:42:30",582321,4.318,118,8.93,0.934,2.367,99.46889,-2.053,-0.893,34.81,0,109.3,13.66,-1.31,80.0
"2009-01-29 01:43:00",582322,2.999,122.9,7.462,1.194,1.379,99.47087,-2.048,-0.905,34.81,0,109.3,13.66,-1.30,84.9
"2009-01-29 01:43:30",582323,1.817,100.5,21.66,1.361,0.577,99.48476,-2.013,-1.09,34.42,0,109.3,13.66,-1.27,62.5
"2009-01-29 01:44:00",582324,2.742,96,7.335,1.475,0.859,99.49014,-1.999,-0.956,34.44,0,109.3,13.66,-1.25,58.0
"2009-01-29 01:44:30",582325,2.509,87.4,6.725,0.666,-0.863,99.49014,-1.999,-0.99,34.32,0,109.3,13.66,-1.25,49.4
"2009-01-29 01:45:00",582326,4.931,103.8,4.658,0.951,2.77,99.49014,-1.999,-0.879,34.41,0,109.3,13.66,-1.25,65.8
"2009-01-29 01:45:30",582327,4.656,106.2,6.904,1.185,2.558,99.49014,-1.999,-0.874,34.69,0,109.3,13.66,-1.25,68.2
"2009-01-29 01:46:00",582328,5.348,102.6,7.04,0.857,3.13,99.48985,-2,-0.848,34.9,0,109.3,13.66,-1.25,64.6
"2009-01-29 01:46:30",582329,5.232,89,6.179,1.204,1.872,99.46833,-2.055,-0.886,35.5,0,109.3,13.66,-1.31,51.0